SCP
0 0 0 0 0 0 0 0 0 0 0 0 0 0 0 0 0 0 0 0 0 0 0 0 0 0 0 0 0 0 0 0 0 0 0 0 0 0 0 0 0 0 0
0 0 0 0 0 0 0 0 0 0 0 0 0 0 0 0 0 0 0 0 0 0 0 0 0 0 0 0 0 0 0 0 0 0 0 0 0 0 0 0 0 0 0
0 0 0 0 0 0 0 0 0 0 0 0 0 0 0 0 0 0 0 0 0 0 0 0 0 0 0 0 0 0 0 0 0 0 0 0 0 0 0 0 0 0 0
0 0 0 0 0 0 0 0 0 0 0 0 0 0 0 0 0 0 0 0 0 0 0 0 0 0 0 0 0 0 0 0 0 0 0 0 0 0 0 0 0 0 0
0 0 0 0 0 0 0 0 0 0 0 0 0 0 0 0 0 0 0 0 0 0 0 0 0 0 0 0 0 0 0 0 0 0 0 0 0 0 0 0 0 0 0
0 0 0 0 0 0 0 0 0 0 0 0 0 0 0 0 0 0 0 0 0 0 0 0 0 0 0 0 0 0 0 0 0 0 0 0 0 0 0 0 0 0 0
0 0 0 0 0 0 0 0 0 0 0 0 0 0 0 0 0 0 0 0 0 0 0 0 0 0 0 0 0 0 0 0 0 0 0 0 0 0 0 0 0 0 0
0 0 0 0 0 0 0 0 0 0 0 0 0 0 0 0 0 0 0 0 0 0 0 0 0 0 0 0 0 0 0 0 0 0 0 0 0 0 0 0 0 0 0
0 0 0 0 0 0 0 0 0 0 0 0 0 0 0 0 0 0 0 0 0 0 0 0 0 0 0 0 0 0 0 0 0 0 0 0 0 0 0 0 0 0 0
0 0 0 0 0 0 0 0 0 0 0 0 0 0 0 0 0 0 0 0 0 0 0 0 0 0 0 0 0 0 0 0 0 0 0 0 0 0 0 0 0 0 0
0 0 0 0 0 0 0 0 0 0 0 0 0 0 0 0 0 0 0 0 0 0 0 0 0 0 0 0 0 0 0 0 0 0 0 0 0 0 0 0 0 0 0
0 0 0 0 0 0 0 0 0 0 0 0 0 0 0 0 0 0 0 0 0 0 0 0 0 0 0 0 0 0 0 0 0 0 0 0 0 0 0 0 0 0 0
0 0 0 0 0 0 0 0 0 0 0 0 0 0 0 0 0 0 0 0 0 0 0 0 0 0 0 0 0 0 0 0 0 0 0 0 0 0 0 0 0 0 0
0 0 0 0 0 0 0 0 0 0 0 0 0 0 0 0 0 0 0 0 0 0 0 0 0 0 0 0 0 0 0 0 0 0 0 0 0 0 0 0 0 0 0
0 0 0 0 0 0 0 0 0 0 0 0 0 0 0 0 0 0 0 0 0 0 0 0 0 0 0 0 0 0 0 0 0 0 0 0 0 0 0 0 0 0 0
0 0 0 0 0 0 0 0 0 0 0 0 0 0 0 0 0 0 0 0 0 0 0 0 0 0 0 0 0 0 0 0 0 0 0 0 0 0 0 0 0 0 0
0 0 0 0 0 0 0 0 0 0 0 0 0 0 0 0 0 0 0 0 0 0 0 0 0 0 0 0 0 0 0 0 0 0 0 0 0 0 0 0 0 0 0
0 0 0 0 0 0 0 0 0 0 0 0 0 0 0 0 0 0 0 0 0 0 0 0 0 0 0 0 0 0 0 0 0 0 0 0 0 0 0 0 0 0 0
0 0 0 0 0 0 0 0 0 0 0 0 0 0 0 0 0 0 0 0 0 0 0 0 0 0 0 0 0 0 0 0 0 0 0 0 0 0 0 0 0 0 0
0 0 0 0 0 0 0 0 0 0 0 0 0 0 0 0 0 0 0 0 0 0 0 0 0 0 0 0 0 0 0 0 0 0 0 0 0 0 0 0 0 0 0
0 0 0 0 0 0 0 0 0 0 0 0 0 0 0 0 0 0 0 0 0 0 0 0 0 0 0 0 0 0 0 0 0 0 0 0 0 0 0 0 0 0 0
0 0 0 0 0 0 0 0 0 0 0 0 0 0 0 0 0 0 0 0 0 0 0 0 0 0 0 0 0 0 0 0 0 0 0 0 0 0 0 0 0 0 0
0 0 0 0 0 0 0 0 0 0 0 0 0 0 0 0 0 0 0 0 0 0 0 0 0 0 0 0 0 0 0 0 0 0 0 0 0 0 0 0 0 0 0
0 0 0 0 0 0 0 0 0 0 0 0 0 0 0 0 0 0 0 0 0 0 0 0 0 0 0 0 0 0 0 0 0 0 0 0 0 0 0 0 0 0 0
0 0 0 0 0 0 0 0 0 0 0 0 0 0 0 0 0 0 0 0 0 0 0 0 0 0 0 0 0 0 0 0 0 0 0 0 0 0 0 0 0 0 0
0 0 0 0 0 0 0 0 0 0 0 0 0 0 0 0 0 0 0 0 0 0 0 0 0 0 0 0 0 0 0 0 0 0 0 0 0 0 0 0 0 0 0
Wind_Speed_500mb
20 24 31 34 41 48 51 55 58 61 63 65 65 68 72 77 86 94 100 102 105 97 104 99 109 101 103 111 104 101 90 80 72 55 64 65 64 76 73 67 59 51 44
17 16 16 22 29 39 46 49 50 55 57 60 63 66 68 70 72 73 89 94 95 101 95 99 101 91 103 106 101 103 101 94 77 67 65 64 67 68 75 67 59 51 46
27 28 30 33 36 42 45 47 51 54 53 58 62 67 68 69 68 74 82 90 94 99 103 100 93 99 96 108 97 101 104 89 77 65 59 60 74 70 75 67 58 53 45
33 38 44 49 51 54 55 56 54 52 54 58 61 64 66 67 71 71 69 81 90 93 96 93 90 94 100 95 95 95 92 77 66 68 59 63 73 74 73 65 58 52 50
45 50 54 54 55 57 60 63 65 62 60 59 61 66 69 72 72 69 69 74 78 79 85 89 89 88 88 86 83 84 84 69 79 67 61 66 73 77 69 59 56 53 50
43 48 54 58 58 59 62 62 65 68 66 64 68 70 72 74 73 72 71 75 79 81 83 87 91 91 85 78 79 79 80 84 81 70 75 72 67 55 54 61 58 57 57
41 45 51 57 62 59 58 61 65 68 69 68 67 69 74 74 72 71 67 76 76 81 84 84 84 83 78 75 76 77 72 77 63 59 77 67 57 59 61 57 66 56 57
49 47 48 54 59 60 61 62 63 65 68 69 69 68 70 72 70 69 66 73 76 78 78 77 78 77 76 71 69 69 72 63 66 75 64 67 63 44 46 40 48 55 51
48 49 51 54 60 64 67 63 60 62 65 67 68 68 70 70 64 67 69 74 77 79 76 76 75 73 70 68 72 78 66 68 71 66 63 51 40 46 46 55 57 49 48
53 52 51 54 57 57 62 66 64 62 66 64 67 67 68 68 64 68 71 74 75 77 77 77 76 74 67 70 81 79 78 84 80 78 63 43 52 46 51 51 49 48 45
59 57 54 53 59 60 61 61 64 65 65 66 68 67 67 67 63 70 73 79 74 76 78 77 77 72 65 75 71 74 82 82 71 62 48 49 51 53 57 56 55 48 44
60 61 61 60 57 59 65 66 64 63 65 67 67 69 68 65 63 68 74 77 74 73 75 74 72 69 70 64 71 69 79 74 71 49 55 58 52 55 58 54 53 46 44
63 63 64 65 61 56 63 68 66 64 64 68 69 68 68 60 61 65 71 69 71 69 65 63 59 63 63 65 72 81 84 86 78 73 63 59 49 48 49 53 45 49 50
69 67 67 69 66 63 61 63 67 67 65 66 69 67 65 59 59 61 64 62 63 73 62 51 47 54 67 77 79 71 84 79 68 60 52 46 41 45 48 46 55 55 52
77 74 71 68 67 65 63 64 64 64 61 60 62 58 60 60 51 51 57 60 64 73 67 43 41 53 71 80 82 75 76 74 65 51 49 41 40 40 43 50 56 56 56
86 83 78 73 73 66 64 66 65 63 58 56 53 53 54 51 46 45 42 40 50 66 67 55 48 57 72 79 78 81 82 82 74 55 55 48 40 37 35 38 49 57 57
83 84 83 79 73 68 61 61 64 55 52 47 47 45 45 41 41 33 30 30 44 51 60 58 54 63 73 75 76 79 89 86 80 70 59 54 49 51 44 45 47 56 61
83 81 79 75 69 65 58 54 51 47 44 40 31 35 31 26 23 24 24 31 44 50 54 54 52 56 60 65 68 71 72 74 73 70 66 60 57 56 57 57 55 59 62
80 78 72 70 65 62 53 48 45 42 43 36 26 27 30 24 19 19 22 38 50 56 60 54 48 49 52 55 57 58 63 66 66 65 64 63 65 66 67 65 58 57 57
72 70 62 65 67 59 52 48 44 40 41 36 33 30 28 30 31 28 29 33 45 51 55 56 48 44 43 47 49 52 53 54 55 56 57 58 63 63 63 62 58 56 56
68 65 56 59 61 60 53 48 43 39 37 34 29 22 25 32 30 30 35 35 34 39 49 39 43 44 41 39 39 40 42 43 44 45 46 47 49 51 55 55 54 53 51
60 56 54 53 53 53 53 50 44 38 34 31 24 24 25 27 25 26 29 31 31 30 33 43 53 46 31 33 36 38 41 45 45 47 48 48 47 50 52 54 53 53 52
51 50 47 45 45 45 43 44 43 36 30 29 29 28 27 28 27 26 26 26 26 27 27 29 31 35 39 44 44 44 46 46 43 44 45 45 46 48 51 53 53 53 53
39 39 37 35 34 36 41 36 36 33 31 32 32 31 32 34 36 32 32 30 32 35 35 34 35 36 38 39 43 46 47 47 47 46 46 48 50 51 53 52 51 50 48
30 27 25 22 22 21 24 24 30 30 29 28 27 27 26 27 30 33 32 39 39 40 40 39 39 39 40 40 39 42 45 47 49 50 50 50 49 49 48 49 49 48 50
22 19 16 14 12 10 10 12 14 16 17 18 20 21 21 23 27 30 31 32 35 38 38 39 40 39 38 38 38 39 39 40 41 42 42 43 44 45 46 47 49 50 49
Wind_Direction_500mb
271 264 262 264 266 266 268 270 270 269 266 263 259 257 256 255 249 245 247 250 251 255 253 251 260 252 256 257 250 242 237 242 245 246 243 238 234 225 219 219 221 225 228
308 288 283 277 272 271 274 277 277 274 271 267 263 260 258 257 252 248 245 247 250 254 253 254 258 253 258 259 255 242 236 240 240 238 239 235 234 226 220 219 221 222 227
326 314 304 296 291 288 282 280 278 276 273 267 264 261 260 258 251 247 247 250 251 254 256 254 255 256 259 258 253 239 237 239 239 234 240 241 234 218 211 214 218 222 225
318 311 304 302 302 299 292 283 279 278 275 272 268 265 262 259 255 254 251 249 252 253 255 256 257 257 259 256 251 239 238 235 227 229 237 239 224 209 209 215 217 220 237
305 301 298 294 293 293 291 287 282 281 279 275 269 264 261 259 257 253 251 252 253 255 255 257 258 256 256 257 250 241 234 223 225 220 225 218 208 204 208 216 215 235 239
298 296 294 292 290 288 286 285 280 277 276 275 272 268 263 259 257 254 254 254 254 255 255 256 255 257 256 254 246 237 235 226 220 215 215 210 203 204 212 212 222 228 229
303 298 296 293 291 288 284 281 277 277 276 274 274 270 266 262 259 254 257 258 257 257 258 258 256 254 249 241 233 232 230 226 218 215 213 204 207 218 212 209 223 222 235
329 321 310 301 295 292 287 282 279 278 276 276 274 271 267 263 259 253 256 258 258 259 258 257 257 254 250 241 233 226 213 206 212 213 210 216 225 208 213 230 215 228 247
332 328 323 318 312 304 295 289 283 277 274 273 274 272 270 266 258 252 254 258 260 261 259 256 254 251 246 240 228 213 204 205 202 200 214 210 198 211 216 204 220 232 237
322 321 321 317 312 309 306 299 289 278 274 269 267 266 266 264 256 251 252 256 257 259 259 255 250 246 240 235 219 211 202 201 203 208 220 223 219 204 209 220 232 243 231
322 318 315 313 311 307 303 299 294 287 277 271 268 264 262 259 254 251 250 256 256 257 256 253 249 242 231 226 217 209 209 212 210 223 219 219 217 210 219 223 236 244 244
321 322 319 314 311 308 304 299 292 286 280 276 271 267 262 257 252 249 251 254 257 258 258 256 250 237 218 220 226 225 208 213 214 226 241 228 219 218 228 228 238 246 252
316 317 320 321 316 310 308 305 297 289 282 278 273 269 267 262 255 252 252 251 255 256 257 256 252 238 218 218 214 208 214 212 229 233 232 229 223 231 232 237 241 248 247
307 309 312 312 317 316 307 301 296 290 284 280 277 274 272 266 257 252 251 247 236 246 254 251 245 227 217 211 215 219 223 220 222 233 225 220 223 231 236 236 240 249 249
296 297 301 304 307 309 306 298 290 286 280 278 276 277 273 268 264 259 256 249 233 238 245 245 237 220 212 221 223 216 220 225 231 219 225 221 223 229 234 238 244 245 250
295 293 294 296 298 300 300 297 289 283 275 268 265 267 267 266 260 254 252 248 239 232 237 236 237 224 218 214 209 212 223 233 229 233 235 229 229 233 240 249 252 252 255
296 290 287 288 293 294 294 291 290 281 271 268 266 263 263 262 259 251 236 223 223 231 234 233 227 220 217 218 218 226 228 226 230 234 233 237 243 246 249 256 266 261 257
294 289 284 284 288 289 289 289 284 277 269 261 264 258 258 258 256 243 220 199 206 225 235 232 230 230 231 231 231 233 236 239 241 238 237 244 247 257 257 258 267 266 259
292 288 284 282 281 282 282 280 274 267 261 253 247 247 243 245 236 234 216 207 206 217 229 237 241 240 237 238 237 240 241 244 246 244 242 249 251 256 255 261 266 265 260
292 288 283 278 277 273 271 271 268 262 257 251 246 244 235 232 225 220 218 219 215 215 230 239 244 247 246 246 246 245 246 248 249 247 247 250 252 252 254 255 264 261 262
297 294 288 278 270 272 267 264 263 256 250 250 251 247 240 236 242 235 222 228 233 229 225 235 245 246 249 251 251 250 249 249 248 251 250 255 254 254 254 259 261 261 257
298 295 288 280 272 270 268 269 263 254 246 241 237 238 237 235 238 241 242 238 239 238 236 235 237 236 236 243 249 251 253 252 255 256 259 259 258 258 256 258 260 256 251
304 299 290 281 274 271 271 272 266 251 235 234 233 232 233 234 232 235 237 241 239 234 229 230 230 231 234 238 239 242 246 250 253 254 253 251 253 256 256 258 256 250 250
313 308 299 288 278 269 263 256 254 246 234 229 231 233 233 233 234 236 234 235 238 241 240 239 241 243 248 249 244 244 246 246 247 248 247 248 249 250 253 252 250 250 249
321 316 311 302 289 273 260 248 243 244 238 235 236 235 229 230 233 235 235 231 232 235 238 240 243 247 251 256 256 252 249 248 249 250 251 250 250 250 250 250 249 248 248
334 330 327 318 309 288 266 251 244 237 234 231 231 230 228 228 231 233 234 234 236 240 244 247 248 250 252 253 252 251 248 247 245 245 247 247 247 248 248 248 250 251 252
Wind_Speed_850mb
20 24 31 34 41 48 51 55 58 61 63 65 65 68 72 77 86 94 100 102 105 97 104 99 109 101 103 111 104 101 90 80 72 55 64 65 64 76 73 67 59 51 44
17 16 16 22 29 39 46 49 50 55 57 60 63 66 68 70 72 73 89 94 95 101 95 99 101 91 103 106 101 103 101 94 77 67 65 64 67 68 75 67 59 51 46
27 28 30 33 36 42 45 47 51 54 53 58 62 67 68 69 68 74 82 90 94 99 103 100 93 99 96 108 97 101 104 89 77 65 59 60 74 70 75 67 58 53 45
33 38 44 49 51 54 55 56 54 52 54 58 61 64 66 67 71 71 69 81 90 93 96 93 90 94 100 95 95 95 92 77 66 68 59 63 73 74 73 65 58 52 50
45 50 54 54 55 57 60 63 65 62 60 59 61 66 69 72 72 69 69 74 78 79 85 89 89 88 88 86 83 84 84 69 79 67 61 66 73 77 69 59 56 53 50
43 48 54 58 58 59 62 62 65 68 66 64 68 70 72 74 73 72 71 75 79 81 83 87 91 91 85 78 79 79 80 84 81 70 75 72 67 55 54 61 58 57 57
41 45 51 57 62 59 58 61 65 68 69 68 67 69 74 74 72 71 67 76 76 81 84 84 84 83 78 75 76 77 72 77 63 59 77 67 57 59 61 57 66 56 57
49 47 48 54 59 60 61 62 63 65 68 69 69 68 70 72 70 69 66 73 76 78 78 77 78 77 76 71 69 69 72 63 66 75 64 67 63 44 46 40 48 55 51
48 49 51 54 60 64 67 63 60 62 65 67 68 68 70 70 64 67 69 74 77 79 76 76 75 73 70 68 72 78 66 68 71 66 63 51 40 46 46 55 57 49 48
53 52 51 54 57 57 62 66 64 62 66 64 67 67 68 68 64 68 71 74 75 77 77 77 76 74 67 70 81 79 78 84 80 78 63 43 52 46 51 51 49 48 45
59 57 54 53 59 60 61 61 64 65 65 66 68 67 67 67 63 70 73 79 74 76 78 77 77 72 65 75 71 74 82 82 71 62 48 49 51 53 57 56 55 48 44
60 61 61 60 57 59 65 66 64 63 65 67 67 69 68 65 63 68 74 77 74 73 75 74 72 69 70 64 71 69 79 74 71 49 55 58 52 55 58 54 53 46 44
63 63 64 65 61 56 63 68 66 64 64 68 69 68 68 60 61 65 71 69 71 69 65 63 59 63 63 65 72 81 84 86 78 73 63 59 49 48 49 53 45 49 50
69 67 67 69 66 63 61 63 67 67 65 66 69 67 65 59 59 61 64 62 63 73 62 51 47 54 67 77 79 71 84 79 68 60 52 46 41 45 48 46 55 55 52
77 74 71 68 67 65 63 64 64 64 61 60 62 58 60 60 51 51 57 60 64 73 67 43 41 53 71 80 82 75 76 74 65 51 49 41 40 40 43 50 56 56 56
86 83 78 73 73 66 64 66 65 63 58 56 53 53 54 51 46 45 42 40 50 66 67 55 48 57 72 79 78 81 82 82 74 55 55 48 40 37 35 38 49 57 57
83 84 83 79 73 68 61 61 64 55 52 47 47 45 45 41 41 33 30 30 44 51 60 58 54 63 73 75 76 79 89 86 80 70 59 54 49 51 44 45 47 56 61
83 81 79 75 69 65 58 54 51 47 44 40 31 35 31 26 23 24 24 31 44 50 54 54 52 56 60 65 68 71 72 74 73 70 66 60 57 56 57 57 55 59 62
80 78 72 70 65 62 53 48 45 42 43 36 26 27 30 24 19 19 22 38 50 56 60 54 48 49 52 55 57 58 63 66 66 65 64 63 65 66 67 65 58 57 57
72 70 62 65 67 59 52 48 44 40 41 36 33 30 28 30 31 28 29 33 45 51 55 56 48 44 43 47 49 52 53 54 55 56 57 58 63 63 63 62 58 56 56
68 65 56 59 61 60 53 48 43 39 37 34 29 22 25 32 30 30 35 35 34 39 49 39 43 44 41 39 39 40 42 43 44 45 46 47 49 51 55 55 54 53 51
60 56 54 53 53 53 53 50 44 38 34 31 24 24 25 27 25 26 29 31 31 30 33 43 53 46 31 33 36 38 41 45 45 47 48 48 47 50 52 54 53 53 52
51 50 47 45 45 45 43 44 43 36 30 29 29 28 27 28 27 26 26 26 26 27 27 29 31 35 39 44 44 44 46 46 43 44 45 45 46 48 51 53 53 53 53
39 39 37 35 34 36 41 36 36 33 31 32 32 31 32 34 36 32 32 30 32 35 35 34 35 36 38 39 43 46 47 47 47 46 46 48 50 51 53 52 51 50 48
30 27 25 22 22 21 24 24 30 30 29 28 27 27 26 27 30 33 32 39 39 40 40 39 39 39 40 40 39 42 45 47 49 50 50 50 49 49 48 49 49 48 50
22 19 16 14 12 10 10 12 14 16 17 18 20 21 21 23 27 30 31 32 35 38 38 39 40 39 38 38 38 39 39 40 41 42 42 43 44 45 46 47 49 50 49
Wind_Direction_850mb
271 264 262 264 266 266 268 270 270 269 266 263 259 257 256 255 249 245 247 250 251 255 253 251 260 252 256 257 250 242 237 242 245 246 243 238 234 225 219 219 221 225 228
308 288 283 277 272 271 274 277 277 274 271 267 263 260 258 257 252 248 245 247 250 254 253 254 258 253 258 259 255 242 236 240 240 238 239 235 234 226 220 219 221 222 227
326 314 304 296 291 288 282 280 278 276 273 267 264 261 260 258 251 247 247 250 251 254 256 254 255 256 259 258 253 239 237 239 239 234 240 241 234 218 211 214 218 222 225
318 311 304 302 302 299 292 283 279 278 275 272 268 265 262 259 255 254 251 249 252 253 255 256 257 257 259 256 251 239 238 235 227 229 237 239 224 209 209 215 217 220 237
305 301 298 294 293 293 291 287 282 281 279 275 269 264 261 259 257 253 251 252 253 255 255 257 258 256 256 257 250 241 234 223 225 220 225 218 208 204 208 216 215 235 239
298 296 294 292 290 288 286 285 280 277 276 275 272 268 263 259 257 254 254 254 254 255 255 256 255 257 256 254 246 237 235 226 220 215 215 210 203 204 212 212 222 228 229
303 298 296 293 291 288 284 281 277 277 276 274 274 270 266 262 259 254 257 258 257 257 258 258 256 254 249 241 233 232 230 226 218 215 213 204 207 218 212 209 223 222 235
329 321 310 301 295 292 287 282 279 278 276 276 274 271 267 263 259 253 256 258 258 259 258 257 257 254 250 241 233 226 213 206 212 213 210 216 225 208 213 230 215 228 247
332 328 323 318 312 304 295 289 283 277 274 273 274 272 270 266 258 252 254 258 260 261 259 256 254 251 246 240 228 213 204 205 202 200 214 210 198 211 216 204 220 232 237
322 321 321 317 312 309 306 299 289 278 274 269 267 266 266 264 256 251 252 256 257 259 259 255 250 246 240 235 219 211 202 201 203 208 220 223 219 204 209 220 232 243 231
322 318 315 313 311 307 303 299 294 287 277 271 268 264 262 259 254 251 250 256 256 257 256 253 249 242 231 226 217 209 209 212 210 223 219 219 217 210 219 223 236 244 244
321 322 319 314 311 308 304 299 292 286 280 276 271 267 262 257 252 249 251 254 257 258 258 256 250 237 218 220 226 225 208 213 214 226 241 228 219 218 228 228 238 246 252
316 317 320 321 316 310 308 305 297 289 282 278 273 269 267 262 255 252 252 251 255 256 257 256 252 238 218 218 214 208 214 212 229 233 232 229 223 231 232 237 241 248 247
307 309 312 312 317 316 307 301 296 290 284 280 277 274 272 266 257 252 251 247 236 246 254 251 245 227 217 211 215 219 223 220 222 233 225 220 223 231 236 236 240 249 249
296 297 301 304 307 309 306 298 290 286 280 278 276 277 273 268 264 259 256 249 233 238 245 245 237 220 212 221 223 216 220 225 231 219 225 221 223 229 234 238 244 245 250
295 293 294 296 298 300 300 297 289 283 275 268 265 267 267 266 260 254 252 248 239 232 237 236 237 224 218 214 209 212 223 233 229 233 235 229 229 233 240 249 252 252 255
296 290 287 288 293 294 294 291 290 281 271 268 266 263 263 262 259 251 236 223 223 231 234 233 227 220 217 218 218 226 228 226 230 234 233 237 243 246 249 256 266 261 257
294 289 284 284 288 289 289 289 284 277 269 261 264 258 258 258 256 243 220 199 206 225 235 232 230 230 231 231 231 233 236 239 241 238 237 244 247 257 257 258 267 266 259
292 288 284 282 281 282 282 280 274 267 261 253 247 247 243 245 236 234 216 207 206 217 229 237 241 240 237 238 237 240 241 244 246 244 242 249 251 256 255 261 266 265 260
292 288 283 278 277 273 271 271 268 262 257 251 246 244 235 232 225 220 218 219 215 215 230 239 244 247 246 246 246 245 246 248 249 247 247 250 252 252 254 255 264 261 262
297 294 288 278 270 272 267 264 263 256 250 250 251 247 240 236 242 235 222 228 233 229 225 235 245 246 249 251 251 250 249 249 248 251 250 255 254 254 254 259 261 261 257
298 295 288 280 272 270 268 269 263 254 246 241 237 238 237 235 238 241 242 238 239 238 236 235 237 236 236 243 249 251 253 252 255 256 259 259 258 258 256 258 260 256 251
304 299 290 281 274 271 271 272 266 251 235 234 233 232 233 234 232 235 237 241 239 234 229 230 230 231 234 238 239 242 246 250 253 254 253 251 253 256 256 258 256 250 250
313 308 299 288 278 269 263 256 254 246 234 229 231 233 233 233 234 236 234 235 238 241 240 239 241 243 248 249 244 244 246 246 247 248 247 248 249 250 253 252 250 250 249
321 316 311 302 289 273 260 248 243 244 238 235 236 235 229 230 233 235 235 231 232 235 238 240 243 247 251 256 256 252 249 248 249 250 251 250 250 250 250 250 249 248 248
334 330 327 318 309 288 266 251 244 237 234 231 231 230 228 228 231 233 234 234 236 240 244 247 248 250 252 253 252 251 248 247 245 245 247 247 247 248 248 248 250 251 252